Location: Dąbrowa Wronowska
(51.1605°N, 22.1145°E)
Time: 04:43:07
(UTC+01:00)

ISS - Visible Passes

Search period start: 24 November 2017 00:00
Search period end: 04 December 2017 00:00
Orbit: 402 x 407 km, 51.6° (Epoch: 24 November)

Date Brightness Start Highest point End Pass type
(mag) Time Alt. Az. Time Alt. Az. Time Alt. Az.
28 Nov -1.0 18:17:17 10° SSW 18:17:50 14° SSW 18:17:50 14° SSW visible
29 Nov -2.0 17:25:30 10° SSW 17:27:45 20° SSE 17:27:45 20° SSE visible
30 Nov -1.5 16:34:13 10° S 16:35:53 13° SE 16:37:34 10° ESE visible
30 Nov -1.8 18:08:36 10° SW 18:10:15 26° SW 18:10:15 26° SW visible
01 Dec -2.9 17:16:28 10° SW 17:19:30 35° SSE 17:20:01 33° SE visible
01 Dec -0.3 18:52:30 10° W 18:52:40 11° W 18:52:40 11° W visible
02 Dec -2.2 16:24:32 10° SSW 16:27:14 24° SE 16:29:44 11° E visible
02 Dec -2.6 18:00:07 10° WSW 18:02:23 41° WSW 18:02:23 41° WSW visible
03 Dec -3.6 17:07:47 10° WSW 17:11:00 57° SSE 17:12:04 36° E visible
03 Dec -0.5 18:44:10 10° W 18:44:42 14° W 18:44:42 14° W visible
